Lihue, HI

6:45 AM HST on January 23, 2018 (GMT -1000)
Lihue

Weather History for PHLI - December, 2012

Change the Weather History Date:

Thursday, December 6, 2012

  Actual Average Record
Temperature  
Mean Temperature 75 °F 74 °F  
Max Temperature 82 °F 79 °F 84 °F (1988)
Min Temperature 67 °F 69 °F 57 °F (1986)
Degree Days  
Heating Degree Days 0 0  
Month to date heating degree days 0 0  
Since 1 July heating degree days 0 0  
Cooling Degree Days 10 9  
Month to date cooling degree days 62 54  
Year to date cooling degree days 3903 3745  
Growing Degree Days 24 (Base 50)    
Moisture  
Dew Point 67 °F    
Average Humidity 76    
Maximum Humidity 90    
Minimum Humidity 62    
Precipitation  
Precipitation 0.00 in 0.16 in 1.97 in (1957)
Month to date precipitation 3.59 0.95  
Year to date precipitation 40.40 32.80  
Snow  
Snow 0.00 in - - ()
Month to date snowfall 0.0  
Since 1 July snowfall 0.0  
Snow Depth 0.00 in    
Sea Level Pressure  
Sea Level Pressure 29.97 in    
Wind  
Wind Speed 6 mph (ESE)    
Max Wind Speed 12 mph    
Max Gust Speed 15 mph    
Visibility 10 miles    
Events      
T = Trace of Precipitation, MM = Missing Value Source: NWS Daily Summary

Daily Weather History Graph

Daily Weather History Graph

Search for Another Location

Airport or City:

Trip Planner

Search our weather history database for the weather conditions in past years. The results will help you decide how hot, cold, wet, or windy it might be!

Date:

Astronomy

Dec. 06, 2012 Rise Set
Actual Time 7:03 AM HST 5:54 PM HST
Civil Twilight 6:39 AM HST 6:18 PM HST
Nautical Twilight 6:11 AM HST 6:45 PM HST
Astronomical Twilight 5:44 AM HST 7:13 PM HST
Moon 12:17 AM HST (12/6) 12:44 PM HST (12/6)
Length of Visible Light 11h 39m
Length of Day
10h 50m
Waning Gibbous, 47% of the Moon is Illuminated
Dec 6
Waning Gibbous
Dec 12
New
Dec 19
First Quarter
Dec 28
Full
Jan 4
Last Quarter

Hourly Weather History & Observations

Time (HST) Temp. Heat Index Dew Point Humidity Pressure Visibility Wind Dir Wind Speed Gust Speed Precip Events Conditions
12:53 AM 70.0 °F - 66.0 °F 87% 30.02 in 10.0 mi West 5.8 mph - N/A   Clear
1:53 AM 69.1 °F - 64.9 °F 87% 30.01 in 10.0 mi WNW 6.9 mph - N/A   Scattered Clouds
2:24 AM 69.8 °F - 64.4 °F 83% 30.01 in 10.0 mi WNW 6.9 mph - N/A   Mostly Cloudy
2:53 AM 69.1 °F - 64.9 °F 87% 29.99 in 10.0 mi WNW 6.9 mph - N/A   Scattered Clouds
3:53 AM 69.1 °F - 64.0 °F 84% 29.99 in 10.0 mi West 6.9 mph - N/A   Clear
4:53 AM 69.1 °F - 64.0 °F 84% 29.98 in 10.0 mi West 8.1 mph - N/A   Clear
5:53 AM 69.1 °F - 64.0 °F 84% 29.99 in 10.0 mi West 8.1 mph - N/A   Clear
6:53 AM 66.9 °F - 63.0 °F 87% 30.01 in 10.0 mi WNW 3.5 mph - N/A   Clear
7:53 AM 69.1 °F - 64.9 °F 87% 30.02 in 10.0 mi West 4.6 mph - N/A   Clear
8:53 AM 73.9 °F - 68.0 °F 82% 30.04 in 10.0 mi WNW 3.5 mph - N/A   Clear
9:11 AM 75.2 °F - 68.0 °F 78% 30.05 in 10.0 mi West 4.6 mph - N/A   Mostly Cloudy
9:53 AM 79.0 °F - 70.0 °F 74% 30.03 in 10.0 mi ENE 5.8 mph - N/A   Scattered Clouds
10:22 AM 80.6 °F 83.9 °F 69.8 °F 70% 30.03 in 10.0 mi ENE 9.2 mph - N/A   Mostly Cloudy
10:35 AM 80.6 °F 83.2 °F 68.0 °F 65% 30.03 in 10.0 mi ENE 8.1 mph - N/A   Scattered Clouds
10:53 AM 80.1 °F 82.7 °F 68.0 °F 67% 30.01 in 10.0 mi ENE 8.1 mph - N/A   Partly Cloudy
11:42 AM 80.6 °F 83.2 °F 68.0 °F 65% 30.00 in 10.0 mi ENE 10.4 mph - N/A   Mostly Cloudy
11:49 AM 80.6 °F 83.2 °F 68.0 °F 65% 30.00 in 10.0 mi ENE 9.2 mph - N/A   Mostly Cloudy
11:53 AM 79.0 °F - 68.0 °F 69% 29.99 in 10.0 mi ENE 10.4 mph - N/A   Mostly Cloudy
12:53 PM 80.1 °F 82.7 °F 68.0 °F 67% 29.95 in 10.0 mi East 10.4 mph - N/A   Overcast
1:13 PM 80.6 °F 82.7 °F 66.2 °F 61% 29.95 in 10.0 mi ENE 9.2 mph - N/A   Scattered Clouds
1:53 PM 81.0 °F 83.3 °F 66.9 °F 62% 29.92 in 10.0 mi ENE 6.9 mph - N/A   Mostly Cloudy
2:02 PM 80.6 °F 82.7 °F 66.2 °F 61% 29.93 in 10.0 mi NE 3.5 mph - N/A   Mostly Cloudy
2:10 PM 80.6 °F 83.2 °F 68.0 °F 65% 29.92 in 10.0 mi Variable 3.5 mph - N/A   Mostly Cloudy
2:53 PM 80.1 °F 82.7 °F 68.0 °F 67% 29.91 in 10.0 mi ESE 6.9 mph - N/A   Scattered Clouds
3:16 PM 80.6 °F 83.9 °F 69.8 °F 70% 29.91 in 10.0 mi East 8.1 mph - N/A   Mostly Cloudy
3:23 PM 80.6 °F 83.9 °F 69.8 °F 70% 29.91 in 10.0 mi East 6.9 mph - N/A   Mostly Cloudy
3:53 PM 78.1 °F - 69.1 °F 74% 29.90 in 10.0 mi East 5.8 mph - N/A   Mostly Cloudy
4:14 PM 78.8 °F - 68.0 °F 69% 29.90 in 10.0 mi ESE 4.6 mph - N/A   Partly Cloudy
4:53 PM 78.1 °F - 66.9 °F 68% 29.90 in 10.0 mi SSE 6.9 mph - N/A   Clear
5:53 PM 75.9 °F - 68.0 °F 76% 29.90 in 10.0 mi Calm Calm - N/A   Partly Cloudy
6:53 PM 75.9 °F - 69.1 °F 79% 29.91 in 10.0 mi South 5.8 mph - N/A   Mostly Cloudy
7:14 PM 75.2 °F - 68.0 °F 78% 29.93 in 10.0 mi SSE 8.1 mph - N/A   Mostly Cloudy
7:53 PM 75.0 °F - 68.0 °F 79% 29.94 in 10.0 mi South 5.8 mph - N/A   Scattered Clouds
8:53 PM 75.9 °F - 68.0 °F 76% 29.95 in 10.0 mi SE 8.1 mph - N/A   Mostly Cloudy
9:53 PM 75.0 °F - 69.1 °F 82% 29.95 in 10.0 mi SSE 4.6 mph - N/A   Mostly Cloudy
10:10 PM 75.2 °F - 68.0 °F 78% 29.96 in 10.0 mi SSE 4.6 mph - N/A   Mostly Cloudy
10:37 PM 75.2 °F - 68.0 °F 78% 29.95 in 10.0 mi South 4.6 mph - N/A   Scattered Clouds
10:53 PM 73.0 °F - 66.9 °F 81% 29.94 in 10.0 mi West 3.5 mph - N/A   Mostly Cloudy
11:16 PM 73.4 °F - 68.0 °F 83% 29.95 in 10.0 mi West 3.5 mph - N/A   Mostly Cloudy
11:53 PM 72.0 °F - 66.9 °F 84% 29.94 in 10.0 mi West 4.6 mph - N/A   Mostly Cloudy